This is the latest recevied weather packets stored in our database for station/object EA5JPW-10. If no packets are shown the sender has not sent any weather packets the latest 10 day(s).
| Time | Temp. | Humidity | Pressure | Rain* | Wind** | Luminosity | Snow |
|---|---|---|---|---|---|---|---|
| 1777499344 | 17.22° C | 44% | 992.2 hPa | - | - | - | - |
| 1777498444 | 17.22° C | 44% | 992.2 hPa | - | - | - | - |
| 1777497544 | 17.22° C | 44% | 992.1 hPa | - | - | - | - |
| 1777496643 | 17.22° C | 44% | 992.1 hPa | - | - | - | - |
| 1777495742 | 17.22° C | 44% | 991.9 hPa | - | - | - | - |
| 1777495616 | 17.78° C | 44% | 992 hPa | - | - | - | - |
| 1777494842 | 17.78° C | 44% | 992 hPa | - | - | - | - |
| 1777493941 | 17.78° C | 43% | 991.8 hPa | - | - | - | - |
| 1777493041 | 18.33° C | 44% | 991.8 hPa | - | - | - | - |
| 1777492143 | 18.89° C | 44% | 991.2 hPa | - | - | - | - |
| 1777491243 | 18.89° C | 43% | 991.1 hPa | - | - | - | - |
| 1777490343 | 19.44° C | 43% | 991 hPa | - | - | - | - |
| 1777489443 | 20° C | 43% | 990.6 hPa | - | - | - | - |
| 1777488543 | 20.56° C | 43% | 990.4 hPa | - | - | - | - |
| 1777487642 | 21.11° C | 43% | 990 hPa | - | - | - | - |
| 1777486742 | 21.67° C | 43% | 989.8 hPa | - | - | - | - |
| 1777485842 | 22.22° C | 43% | 989.5 hPa | - | - | - | - |
| 1777484942 | 22.78° C | 42% | 989.7 hPa | - | - | - | - |
| 1777484042 | 23.33° C | 42% | 989.5 hPa | - | - | - | - |
| 1777483142 | 23.89° C | 41% | 989.3 hPa | - | - | - | - |
| 1777482241 | 25.56° C | 40% | 989.4 hPa | - | - | - | - |
| 1777481341 | 25.56° C | 41% | 988.9 hPa | - | - | - | - |
| 1777480441 | 28.33° C | 38% | 988.1 hPa | - | - | - | - |
| 1777479541 | 31.11° C | 36% | 988.9 hPa | - | - | - | - |
| 1777478641 | 32.22° C | 35% | 987.8 hPa | - | - | - | - |
* Rain since midnight (hover to see other rain measurements)
** Current wind speed in m/s (hover to see current wind gust speed)